DateTimeUTC,F1_A11,F1_S11,BsB_S11,BsG_S11,BsR_S11,BbsB_S11,BbsG_S11,BbsR_S11,BaB_A11,BaG_A11,BaR_A11,Tu_S11,T_S11,Uu_S11,U_S11,P_S11,T1_A11
2021-11-19T22:00:00Z,00000200,21000000,,,,,,,0000.00,0000.09,-000.24,18.8,25.9,,00.0,0640.4,30.9
2021-11-19T22:01:00Z,00000200,21000000,,,,,,,0000.05,-000.16,0000.43,18.8,25.9,,00.0,0640.4,30.9
2021-11-19T22:02:00Z,00000200,21000000,,,,,,,0000.08,-000.06,-000.22,18.8,25.9,,00.0,0640.4,30.9
2021-11-19T22:03:00Z,00000200,61000000,,,,,,,0000.11,0000.23,-000.03,18.8,25.9,,00.0,0640.4,30.9
2021-11-19T22:04:00Z,00000200,41000000,-000.95,0000.19,0000.03,-000.28,0000.30,0000.01,0000.17,-000.04,0000.04,19.1,25.8,,00.0,0641.4,30.9
2021-11-19T22:05:00Z,00000200,01000000,0000.35,-000.14,0000.01,-000.24,0000.06,0000.05,-000.16,0000.45,0000.07,19.2,25.8,,00.0,0641.4,30.9
2021-11-19T22:06:00Z,00000200,01000000,0000.51,0000.33,0000.16,-000.20,-000.28,0000.23,0000.01,-000.20,0000.14,19.3,25.8,,00.0,0641.4,30.9
2021-11-19T22:07:00Z,00000200,01000000,-000.16,0000.23,-000.04,-000.62,0000.21,0000.23,0000.15,0000.08,-000.25,19.3,25.8,,00.0,0641.4,30.9
2021-11-19T22:08:00Z,00000200,01000000,0000.59,0000.36,-000.20,0000.29,-000.08,0000.06,-000.10,-000.49,0000.20,19.3,25.8,,00.0,0641.4,30.9
2021-11-19T22:09:00Z,00000200,01000000,0000.42,0000.07,0000.25,0000.28,0000.06,0000.11,-000.12,0000.46,-000.41,19.3,25.8,,00.0,0641.4,30.9
2021-11-19T22:10:00Z,00000200,01000000,-000.55,-000.02,0000.27,-000.22,0000.21,0000.11,0000.14,-000.07,0000.13,19.2,25.8,,00.0,0641.3,30.9
2021-11-19T22:11:00Z,00000200,01000000,-000.17,0000.30,-000.39,-000.18,0000.36,0000.14,-000.08,0000.05,0000.28,19.1,25.8,,00.0,0641.3,30.9
2021-11-19T22:12:00Z,00000200,01000000,0000.84,-000.02,0000.04,-000.27,0000.49,0000.40,0000.16,-000.18,0000.26,19.0,25.7,,00.0,0641.3,30.8
2021-11-19T22:13:00Z,00000200,01000000,0000.39,-000.04,-000.06,-000.64,0000.23,0000.09,0000.21,0000.30,-000.10,19.0,25.7,,00.0,0641.3,30.8
2021-11-19T22:14:00Z,00000200,01000000,0001.02,0000.16,0000.28,-000.67,0000.08,0000.31,0000.01,0000.15,0000.20,19.0,25.7,,00.0,0641.3,30.8
2021-11-19T22:15:00Z,00000200,01000000,0000.02,0000.37,0000.15,-000.37,0000.17,-000.05,0000.14,-000.07,0000.07,19.0,25.7,,00.0,0641.3,30.8
2021-11-19T22:16:00Z,00000200,01000000,-000.54,0000.24,0000.29,-000.17,0000.33,0000.13,0000.11,0000.20,-000.04,19.0,25.7,,00.0,0641.3,30.9
2021-11-19T22:17:00Z,00000200,01000000,0000.33,0000.19,0000.04,-000.12,0000.33,-000.04,0000.01,0000.15,0000.26,19.0,25.7,,00.0,0641.3,30.8
2021-11-19T22:18:00Z,00000200,01000000,0000.40,0000.19,0000.20,-000.44,0000.05,0000.40,0000.18,0000.08,0000.01,19.1,25.7,,00.0,0641.3,30.9
2021-11-19T22:19:00Z,00000200,01000000,-000.22,-000.25,-000.12,0000.10,-000.01,0000.14,0000.09,-000.21,-000.12,19.1,25.7,,00.0,0641.4,30.9
2021-11-19T22:20:00Z,00000200,01000000,0000.28,0000.18,0000.34,-000.11,0000.09,-000.01,-000.04,0000.30,0000.20,19.2,25.7,,00.0,0641.4,30.9
2021-11-19T22:21:00Z,00000200,01000000,-000.03,0000.06,0000.11,-000.47,0000.05,0000.11,0000.17,0000.03,0000.04,19.2,25.7,,00.0,0641.4,30.9
2021-11-19T22:22:00Z,00000200,01000000,-000.80,-000.04,0000.27,-000.56,0000.31,0000.45,-000.09,-000.00,-000.03,19.2,25.7,,00.0,0641.4,30.9
2021-11-19T22:23:00Z,00000200,01000000,0000.25,-000.17,0000.25,-000.01,0000.20,0000.07,0000.09,0000.03,0000.17,19.2,25.7,,00.0,0641.4,30.9
2021-11-19T22:24:00Z,00000200,01000000,-000.06,0000.14,-000.02,-000.35,0000.29,0000.62,-000.23,-000.34,-000.19,19.2,25.8,,00.0,0641.3,30.9
2021-11-19T22:25:00Z,00000200,01000000,-000.14,0000.06,0000.43,-000.32,0000.21,0000.39,0000.10,0000.36,0000.10,19.2,25.8,,00.0,0641.3,30.9
2021-11-19T22:26:00Z,00000200,01000000,-000.30,-000.02,0000.46,-000.20,0000.10,0000.25,0000.18,-000.03,-000.00,19.1,25.7,,00.0,0641.3,30.8
2021-11-19T22:27:00Z,00000200,01000000,0000.28,0000.38,0000.16,-000.75,0000.07,0000.24,-000.07,0000.10,0000.15,19.0,25.7,,00.0,0641.3,30.8
2021-11-19T22:28:00Z,00000200,01000000,-000.17,0000.23,0000.17,0000.05,0000.04,-000.07,-000.02,-000.04,-000.07,18.9,25.6,,00.0,0641.3,30.8
2021-11-19T22:29:00Z,00000200,01000000,0000.47,0000.00,0000.02,0000.36,0000.21,0000.05,0000.21,-000.12,-000.18,18.9,25.6,,00.0,0641.3,30.8
2021-11-19T22:30:00Z,00000200,01000000,0000.77,0000.50,0000.08,-000.17,0000.24,-000.04,0000.07,0000.37,0000.33,18.9,25.6,,00.0,0641.3,30.8
2021-11-19T22:31:00Z,00000200,01000000,0000.28,0000.14,0000.14,-000.28,0000.05,0000.19,0000.04,0000.25,0000.33,19.0,25.6,,00.0,0641.3,30.8
2021-11-19T22:32:00Z,00000200,01000000,0000.47,0000.48,0000.01,-000.21,0000.09,-000.19,-000.13,0000.01,-000.11,19.0,25.6,,00.0,0641.3,30.8
2021-11-19T22:33:00Z,00000200,01000000,-000.44,-000.12,0000.18,-000.04,0000.16,0000.15,0000.23,-000.17,0000.05,19.0,25.6,,00.0,0641.4,30.8
2021-11-19T22:34:00Z,00000200,01000000,0000.50,0000.16,0000.46,-000.30,0000.20,0000.28,0000.06,0000.07,-000.34,19.0,25.6,,00.0,0641.3,30.8
2021-11-19T22:35:00Z,00000200,01000000,-000.01,0000.03,-000.03,0000.37,-000.07,0000.06,0000.03,-000.04,0000.12,19.0,25.6,,00.0,0641.4,30.9
2021-11-19T22:36:00Z,00000200,01000000,0000.33,0000.36,0000.11,0000.45,-000.10,0000.43,-000.12,0000.06,-000.11,19.1,25.7,,00.0,0641.4,30.9
2021-11-19T22:37:00Z,00000200,01000000,0000.52,0000.10,0000.13,-000.03,0000.04,0000.26,0000.09,0000.14,0000.14,19.0,25.7,,00.0,0641.4,30.8
2021-11-19T22:38:00Z,00000200,01000000,-000.47,-000.05,0000.34,0000.18,-000.09,0000.11,0000.02,-000.22,-000.08,19.0,25.6,,00.0,0641.3,30.8
2021-11-19T22:39:00Z,00000200,01000000,0000.39,0000.12,0000.45,0000.41,0000.16,0000.59,-000.19,0000.33,0000.23,18.9,25.6,,00.0,0641.4,30.8
2021-11-19T22:40:00Z,00000200,01000000,-000.17,0000.07,0000.07,0000.23,0000.21,0000.21,0000.29,-000.30,-000.08,18.8,25.5,,00.0,0641.4,30.8
2021-11-19T22:41:00Z,00000200,01000000,0000.58,0000.38,0000.10,-000.26,0000.41,0000.52,-000.04,-000.16,-000.26,18.7,25.5,,00.0,0641.4,30.8
2021-11-19T22:42:00Z,00000200,01000000,0000.00,-000.24,0000.07,0000.26,0000.06,0000.50,0000.14,0000.24,0000.13,18.6,25.4,,00.0,0641.4,30.8
2021-11-19T22:43:00Z,00000200,01000000,0000.86,0000.07,0000.14,-000.19,-000.05,0000.29,-000.38,-000.32,0000.05,18.5,25.4,,00.0,0641.4,30.8
2021-11-19T22:44:00Z,00000200,01000000,0000.25,0000.35,-000.16,-000.59,0000.07,0000.25,0000.14,0000.17,-000.04,18.5,25.3,,00.0,0641.4,30.8
2021-11-19T22:45:00Z,00000200,01000000,0000.31,0000.03,0000.54,-000.43,0000.22,0000.52,0000.14,0000.40,0000.05,18.5,25.3,,00.0,0641.4,30.8
2021-11-19T22:46:00Z,00000200,01000000,0000.04,0000.16,0000.24,-000.39,0000.25,-000.10,0000.16,-000.20,-000.24,18.6,25.3,,00.0,0641.4,30.8
2021-11-19T22:47:00Z,00000200,01000000,0000.37,0000.24,0000.15,-000.62,0000.12,0000.43,-000.14,0000.14,0000.47,18.6,25.3,,00.0,0641.4,30.8
2021-11-19T22:48:00Z,00000200,01000000,0000.02,0000.21,0000.07,-000.28,0000.36,0000.41,0000.36,0000.34,0000.16,18.7,25.3,,00.0,0641.4,30.8
2021-11-19T22:49:00Z,00000200,01000000,0000.17,0000.03,0000.55,-000.21,0000.22,-000.05,-000.11,-000.20,-000.34,18.7,25.4,,00.0,0641.3,30.8
2021-11-19T22:50:00Z,00000200,01000000,0000.44,0000.20,0000.19,-000.04,-000.07,0000.46,0000.18,0000.13,0000.29,18.7,25.4,,00.0,0641.3,30.8
2021-11-19T22:51:00Z,00000200,01000000,0000.49,-000.11,0000.25,-000.53,-000.28,0000.39,0000.06,-000.08,0000.26,18.8,25.4,,00.0,0641.3,30.8
2021-11-19T22:52:00Z,00000200,01000000,0000.19,0000.06,0000.13,-000.87,0000.28,0000.13,0000.07,0000.34,-000.00,18.8,25.4,,00.0,0641.3,30.8
2021-11-19T22:53:00Z,00000200,01000000,-000.26,0000.22,-000.00,-000.93,0000.06,0000.11,0000.08,0000.07,-000.09,18.9,25.4,,00.0,0641.3,30.8
2021-11-19T22:54:00Z,00000200,01000000,0000.28,0000.21,0000.17,-000.34,0000.15,0000.34,0000.28,0000.03,0000.44,18.9,25.4,,00.0,0641.3,30.8
2021-11-19T22:55:00Z,00000200,01000000,-000.03,0000.05,0000.34,-000.10,-000.11,0000.26,-000.22,-000.15,-000.12,18.9,25.4,,00.0,0641.3,30.9
2021-11-19T22:56:00Z,00000200,01000000,-000.46,-000.07,-000.05,-000.36,0000.42,0000.03,-000.42,0000.03,-000.13,18.9,25.5,,00.0,0641.3,30.9
2021-11-19T22:57:00Z,00000200,41000000,,,,,,,0000.17,-000.04,-000.21,18.9,25.5,,00.0,0641.4,30.9
2021-11-19T22:58:00Z,00000200,61000000,,,,,,,0000.01,-000.29,0000.25,18.5,25.6,,00.0,0640.4,30.9
2021-11-19T22:59:00Z,00000200,21000000,,,,,,,0000.03,0000.47,-000.02,18.5,25.7,,00.0,0640.4,30.9
